Change the Weather History Date:

Thursday, October 23, 2014

  Actual Average Record
Temperature  
Mean Temperature 52 °F 49 °F  
Max Temperature 56 °F 64 °F 79 °F (1988)
Min Temperature 48 °F 35 °F 26 °F (2002)
Degree Days  
Heating Degree Days 13 16  
Month to date heating degree days 173 269  
Since 1 July heating degree days 219 411  
Cooling Degree Days 0 0  
Month to date cooling degree days 0 0  
Year to date cooling degree days 913 542  
Growing Degree Days 2 (Base 50)    
Moisture  
Dew Point 47 °F    
Average Humidity 82    
Maximum Humidity 93    
Minimum Humidity 72    
Precipitation  
Precipitation 0.61 in 0.04 in 1.13 in (1973)
Month to date precipitation 1.26 0.67  
Year to date precipitation 8.81 12.31  
Sea Level Pressure  
Sea Level Pressure 30.03 in    
Wind  
Wind Speed 11 mph (South)    
Max Wind Speed 28 mph    
Max Gust Speed 33 mph    
Visibility 9 miles    
Events Rain    
T = Trace of Precipitation, MM = Missing Value Source: NWS Daily Summary

Daily Weather History Graph

Daily Weather History Graph

Search for Another Location

Airport or City:

Trip Planner

Search our weather history database for the weather conditions in past years. The results will help you decide how hot, cold, wet, or windy it might be!

Date:

Astronomy

Oct. 23, 2014 Rise Set
Actual Time 7:31 AM PDT 6:16 PM PDT
Civil Twilight 7:03 AM PDT 6:44 PM PDT
Nautical Twilight 6:30 AM PDT 7:17 PM PDT
Astronomical Twilight 5:58 AM PDT 7:49 PM PDT
Moon 7:16 AM PDT (10/23) 6:21 PM PDT (10/23)
Length of Visible Light 11h 41m
Length of Day
10h 44m
Waning Crescent, 0% of the Moon is Illuminated
Oct 23
Waning Crescent
Oct 23
New
Oct 30
First Quarter
Nov 6
Full
Nov 14
Last Quarter

Hourly Weather History & Observations

Time (PDT) Temp. Dew Point Humidity Pressure Visibility Wind Dir Wind Speed Gust Speed Precip Events Conditions
12:53 AM 52.0 °F 46.9 °F 83% 29.99 in 10.0 mi South 8.1 mph - 0.02 in Rain Light Rain
1:53 AM 53.1 °F 48.0 °F 83% 29.99 in 10.0 mi South 13.8 mph - 0.01 in Rain Light Rain
2:53 AM 52.0 °F 48.0 °F 86% 29.99 in 6.0 mi South 18.4 mph - 0.04 in Rain Rain
3:53 AM 53.1 °F 48.0 °F 83% 29.94 in 10.0 mi SSE 19.6 mph - 0.04 in   Scattered Clouds
4:53 AM 51.1 °F 48.0 °F 89% 29.94 in 10.0 mi SSW 3.5 mph - N/A   Overcast
5:53 AM 52.0 °F 48.0 °F 86% 29.94 in 9.0 mi South 10.4 mph - 0.05 in Rain Light Rain
6:53 AM 54.0 °F 46.9 °F 77% 29.94 in 10.0 mi South 16.1 mph - 0.00 in   Mostly Cloudy
7:53 AM 55.9 °F 46.0 °F 69% 29.96 in 10.0 mi South 16.1 mph - N/A   Overcast
8:53 AM 54.0 °F 48.0 °F 80% 29.99 in 10.0 mi South 11.5 mph - 0.03 in Rain Light Rain
9:53 AM 54.0 °F 48.0 °F 80% 30.00 in 7.0 mi SSE 15.0 mph - 0.07 in Rain Rain
10:53 AM 54.0 °F 48.9 °F 83% 30.02 in 7.0 mi South 16.1 mph - 0.03 in Rain Light Rain
11:53 AM 54.0 °F 48.9 °F 83% 30.04 in 9.0 mi South 15.0 mph - 0.04 in Rain Light Rain
12:53 PM 53.1 °F 50.0 °F 89% 30.06 in 4.0 mi South 11.5 mph - 0.05 in Rain Heavy Rain
1:53 PM 55.0 °F 50.0 °F 83% 30.02 in 10.0 mi SSE 15.0 mph - 0.06 in   Overcast
2:53 PM 55.0 °F 48.0 °F 77% 30.06 in 10.0 mi South 13.8 mph - 0.00 in Rain Light Rain
3:53 PM 53.1 °F 48.0 °F 83% 30.09 in 5.0 mi West 5.8 mph - 0.02 in Rain Rain
4:53 PM 52.0 °F 46.9 °F 83% 30.07 in 10.0 mi SSE 15.0 mph - 0.06 in   Overcast
5:53 PM 51.1 °F 46.0 °F 83% 30.08 in 10.0 mi SSE 12.7 mph - N/A   Overcast
6:53 PM 51.1 °F 44.1 °F 77% 30.07 in 10.0 mi SSE 12.7 mph - N/A   Overcast
7:53 PM 50.0 °F 45.0 °F 83% 30.08 in 10.0 mi SSW 9.2 mph - N/A   Overcast
8:53 PM 52.0 °F 43.0 °F 71% 30.09 in 10.0 mi SE 10.4 mph - 0.00 in Rain Light Rain
9:53 PM 50.0 °F 44.1 °F 80% 30.09 in 10.0 mi SW 8.1 mph - 0.00 in Rain Light Rain
10:53 PM 48.9 °F 46.0 °F 90% 30.10 in 7.0 mi WSW 4.6 mph - 0.03 in Rain Light Rain
11:53 PM 48.9 °F 46.9 °F 93% 30.09 in 7.0 mi Calm Calm - 0.04 in Rain Light Rain